• In Hungary
  • List of Countries
  • For 7 days
  • Water Temperature
  • Satellite Maps
  • Weather Map
  • News
  • Weather Widgets
  • user-avatar
    Login

    Hourly Weather Mamien

    Today, 16 July, Monday

    Time Temperature Precipitation Wind Pressure Humidity
    00:00 +18°C° 0 mm 2 mps 748 mmHg 89%
    01:00 +17°C° 0 mm 2 mps 748 mmHg 90%
    02:00 +17°C° 0.1 mm 2 mps 748 mmHg 91%
    03:00 +17°C° 0.1 mm 3 mps 748 mmHg 92%
    04:00 +16°C° 0.1 mm 3 mps 748 mmHg 93%
    05:00 +17°C° 0.1 mm 3 mps 748 mmHg 90%
    06:00 +18°C° 0.1 mm 4 mps 748 mmHg 86%
    07:00 +20°C° 0.1 mm 4 mps 748 mmHg 82%
    08:00 +21°C° 0.1 mm 4 mps 747 mmHg 77%
    09:00 +22°C° 0.1 mm 4 mps 747 mmHg 72%
    10:00 +25°C° 0.1 mm 4 mps 747 mmHg 68%
    11:00 +25°C° 0.6 mm 5 mps 746 mmHg 68%
    12:00 +25°C° 0.6 mm 5 mps 746 mmHg 68%
    13:00 +25°C° 0.6 mm 5 mps 746 mmHg 68%
    14:00 +26°C° 0.1 mm 5 mps 746 mmHg 67%
    15:00 +26°C° 0.1 mm 5 mps 745 mmHg 66%
    16:00 +26°C° 0.1 mm 5 mps 745 mmHg 65%
    17:00 +25°C° 0.5 mm 4 mps 745 mmHg 71%
    18:00 +22°C° 0.5 mm 4 mps 745 mmHg 78%
    19:00 +21°C° 0.5 mm 3 mps 744 mmHg 84%
    20:00 +20°C° 0.1 mm 3 mps 744 mmHg 87%
    21:00 +19°C° 0.1 mm 3 mps 744 mmHg 91%
    22:00 +19°C° 0.1 mm 3 mps 744 mmHg 94%
    23:00 +18°C° 0.3 mm 3 mps 744 mmHg 95%

    Tomorrow, 17 July, Tuesday

    Time Temperature Precipitation Wind Pressure Humidity
    00:00 +18°C° 0.3 mm 3 mps 744 mmHg 96%
    01:00 +18°C° 0.3 mm 3 mps 744 mmHg 97%
    02:00 +18°C° 1.6 mm 3 mps 744 mmHg 97%
    03:00 +18°C° 1.6 mm 3 mps 743 mmHg 97%
    04:00 +18°C° 1.6 mm 3 mps 743 mmHg 97%
    05:00 +18°C° 1.6 mm 4 mps 743 mmHg 96%
    06:00 +19°C° 1.6 mm 4 mps 743 mmHg 96%
    07:00 +19°C° 1.6 mm 4 mps 743 mmHg 95%
    08:00 +19°C° 0.5 mm 4 mps 743 mmHg 93%
    09:00 +20°C° 0.5 mm 4 mps 743 mmHg 91%
    10:00 +21°C° 0.5 mm 4 mps 743 mmHg 88%
    11:00 +21°C° 1 mm 4 mps 743 mmHg 85%
    12:00 +22°C° 1 mm 4 mps 743 mmHg 83%
    13:00 +23°C° 1 mm 4 mps 742 mmHg 80%
    14:00 +23°C° 1.1 mm 4 mps 742 mmHg 80%
    15:00 +23°C° 1.1 mm 4 mps 742 mmHg 81%
    16:00 +23°C° 1.1 mm 4 mps 742 mmHg 81%
    17:00 +22°C° 0.8 mm 4 mps 742 mmHg 84%
    18:00 +22°C° 0.8 mm 4 mps 742 mmHg 87%
    19:00 +21°C° 0.8 mm 4 mps 742 mmHg 89%
    20:00 +20°C° 0.2 mm 4 mps 742 mmHg 91%
    21:00 +20°C° 0.2 mm 4 mps 742 mmHg 93%
    22:00 +19°C° 0.2 mm 4 mps 742 mmHg 95%
    23:00 +19°C° 0.1 mm 4 mps 742 mmHg 96%

    Day after tomorrow, 18 July, Wednesday

    Time Temperature Precipitation Wind Pressure Humidity
    00:00 +19°C° 0.1 mm 4 mps 742 mmHg 96%
    01:00 +19°C° 0.1 mm 4 mps 742 mmHg 96%
    02:00 +19°C° 0.7 mm 5 mps 742 mmHg 96%
    03:00 +19°C° 0.7 mm 5 mps 742 mmHg 96%
    04:00 +19°C° 0.7 mm 5 mps 742 mmHg 96%
    05:00 +19°C° 0.9 mm 5 mps 742 mmHg 95%
    06:00 +19°C° 0.9 mm 5 mps 742 mmHg 95%
    07:00 +19°C° 0.9 mm 5 mps 742 mmHg 94%
    08:00 +20°C° 0.4 mm 5 mps 743 mmHg 93%
    09:00 +21°C° 0.4 mm 5 mps 743 mmHg 91%
    10:00 +21°C° 0.4 mm 5 mps 743 mmHg 90%
    11:00 +22°C° 0.2 mm 5 mps 743 mmHg 88%
    12:00 +23°C° 0.2 mm 5 mps 743 mmHg 85%
    13:00 +23°C° 0.2 mm 6 mps 743 mmHg 83%
    14:00 +23°C° 0.4 mm 6 mps 743 mmHg 84%
    15:00 +23°C° 0.4 mm 6 mps 743 mmHg 85%
    16:00 +23°C° 0.4 mm 6 mps 743 mmHg 86%
    17:00 +22°C° 1.5 mm 6 mps 743 mmHg 88%
    18:00 +22°C° 1.5 mm 6 mps 744 mmHg 90%
    19:00 +21°C° 1.5 mm 6 mps 744 mmHg 92%
    20:00 +21°C° 1.7 mm 6 mps 744 mmHg 93%
    21:00 +21°C° 1.7 mm 6 mps 744 mmHg 93%
    22:00 +21°C° 1.7 mm 6 mps 744 mmHg 94%
    23:00 +20°C° 1.2 mm 5 mps 745 mmHg 95%

    19 July, Thursday

    Time Temperature Precipitation Wind Pressure Humidity
    00:00 +20°C° 1.2 mm 5 mps 745 mmHg 95%
    01:00 +20°C° 1.2 mm 5 mps 745 mmHg 96%
    02:00 +20°C° 0.8 mm 5 mps 745 mmHg 96%
    03:00 +20°C° 0.8 mm 5 mps 745 mmHg 96%
    04:00 +20°C° 0.8 mm 5 mps 745 mmHg 96%
    05:00 +20°C° 0.3 mm 5 mps 745 mmHg 95%
    06:00 +20°C° 0.3 mm 5 mps 745 mmHg 94%
    07:00 +20°C° 0.3 mm 5 mps 745 mmHg 94%
    08:00 +21°C° 0.2 mm 5 mps 745 mmHg 92%
    09:00 +21°C° 0.2 mm 5 mps 745 mmHg 90%
    10:00 +22°C° 0.2 mm 5 mps 746 mmHg 88%
    11:00 +22°C° 0.1 mm 5 mps 746 mmHg 85%
    12:00 +23°C° 0.1 mm 6 mps 745 mmHg 81%
    13:00 +24°C° 0.1 mm 6 mps 745 mmHg 78%
    14:00 +24°C° 0.2 mm 6 mps 746 mmHg 77%
    15:00 +24°C° 0.2 mm 6 mps 746 mmHg 76%
    16:00 +24°C° 0.2 mm 6 mps 746 mmHg 76%
    17:00 +23°C° 0.1 mm 6 mps 746 mmHg 79%
    18:00 +22°C° 0.1 mm 6 mps 746 mmHg 82%
    19:00 +22°C° 0.1 mm 5 mps 746 mmHg 85%
    20:00 +21°C° 0 mm 5 mps 747 mmHg 88%
    21:00 +20°C° 0 mm 5 mps 747 mmHg 91%
    22:00 +19°C° 0 mm 5 mps 747 mmHg 93%
    23:00 +19°C° 0 mm 5 mps 747 mmHg 94%

    20 July, Friday

    Time Temperature Precipitation Wind Pressure Humidity
    00:00 +19°C° 0 mm 4 mps 747 mmHg 94%
    01:00 +18°C° 0 mm 4 mps 747 mmHg 94%
    02:00 +18°C° 0 mm 4 mps 747 mmHg 94%
    03:00 +18°C° 0 mm 4 mps 747 mmHg 93%
    04:00 +18°C° 0 mm 4 mps 747 mmHg 92%
    05:00 +18°C° 0.1 mm 4 mps 747 mmHg 92%
    06:00 +18°C° 0.1 mm 4 mps 747 mmHg 91%
    07:00 +18°C° 0.1 mm 4 mps 747 mmHg 91%
    08:00 +19°C° 0.1 mm 4 mps 747 mmHg 89%
    09:00 +19°C° 0.1 mm 4 mps 747 mmHg 87%
    10:00 +20°C° 0.1 mm 4 mps 747 mmHg 86%
    11:00 +21°C° 0.1 mm 4 mps 747 mmHg 81%
    12:00 +22°C° 0.1 mm 4 mps 747 mmHg 77%
    13:00 +23°C° 0.1 mm 4 mps 747 mmHg 73%
    14:00 +23°C° 0.1 mm 4 mps 746 mmHg 72%
    15:00 +23°C° 0.1 mm 4 mps 746 mmHg 72%
    16:00 +23°C° 0.1 mm 4 mps 746 mmHg 71%
    17:00 +23°C° 0 mm 4 mps 746 mmHg 75%
    18:00 +22°C° 0 mm 3 mps 746 mmHg 78%
    19:00 +21°C° 0 mm 2 mps 746 mmHg 82%
    20:00 +20°C° 0 mm 2 mps 746 mmHg 84%
    21:00 +19°C° 0 mm 2 mps 747 mmHg 86%
    22:00 +19°C° 0 mm 3 mps 747 mmHg 88%
    23:00 +18°C° 0 mm 2 mps 747 mmHg 89%

    21 July, Saturday

    Time Temperature Precipitation Wind Pressure Humidity
    00:00 +18°C° 0 mm 2 mps 747 mmHg 89%
    01:00 +17°C° 0 mm 2 mps 747 mmHg 89%
    02:00 +17°C° 0 mm 2 mps 747 mmHg 88%
    03:00 +16°C° 0 mm 2 mps 746 mmHg 87%
    04:00 +16°C° 0 mm 2 mps 746 mmHg 86%
    05:00 +17°C° 0 mm 2 mps 746 mmHg 81%
    06:00 +18°C° 0 mm 2 mps 747 mmHg 76%
    07:00 +19°C° 0 mm 2 mps 747 mmHg 71%
    08:00 +20°C° 0 mm 2 mps 747 mmHg 65%
    09:00 +21°C° 0 mm 3 mps 746 mmHg 58%
    10:00 +24°C° 0 mm 3 mps 746 mmHg 52%
    11:00 +24°C° 0 mm 3 mps 746 mmHg 50%
    12:00 +25°C° 0 mm 3 mps 746 mmHg 48%
    13:00 +26°C° 0 mm 3 mps 746 mmHg 46%
    14:00 +26°C° 0 mm 3 mps 746 mmHg 47%
    15:00 +26°C° 0 mm 3 mps 745 mmHg 48%
    16:00 +26°C° 0 mm 3 mps 745 mmHg 48%
    17:00 +24°C° 0 mm 3 mps 745 mmHg 54%
    18:00 +23°C° 0 mm 2 mps 745 mmHg 59%
    19:00 +21°C° 0 mm 2 mps 745 mmHg 64%
    20:00 +20°C° 0 mm 2 mps 746 mmHg 66%
    21:00 +19°C° 0 mm 2 mps 746 mmHg 67%
    22:00 +18°C° 0 mm 2 mps 746 mmHg 69%
    23:00 +18°C° 0 mm 2 mps 746 mmHg 73%
    Show more